Regional Weather Roundup
Issued by NWS Charleston, SC

Current Version | Previous Version | Graphics & Text | Print | Product List | Glossary On
Versions: 1 2 3 4 5 6 7 8 9 10 11 12 13 14 15 16 17 18 19 20 21 22 23 24 25 26 27 28 29 30 31 32 33 34 35 36 37 38 39 40 41 42 43 44 45 46 47 48 49 50
000 ASUS42 KCHS 211812 RWRCHS Regional Weather Roundup National Weather Service Charleston SC 100 PM EST WED FEB 21 2018 NOTE: "fair" indicates few or no clouds below 12,000 feet with no significant weather and/or obstructions to visibility. Not all stations are quality controlled. Use data with caution, especially dewpoint observations. SCZ027-030-031-034>040-042>050-211900- ...Southeast South Carolina... CITY SKY/WX TMP DP RH WIND PRES REMARKS N Charleston PTSUNNY 77 67 71 S12 30.44F 6HR MIN TEMP: 62; 6HR MAX TEMP: 80; Waterfront Prk N/A 70 67 90 S7 30.30F Mount Pleasant FAIR 75 68 78 SE7 30.45F Johns Island CLOUDY 75 70 83 SE8 30.45F Pinopolis N/A 75 68 78 VRB3 30.38F Moncks Corner CLOUDY 75 66 73 S8 30.44F Summerville CLOUDY 77 66 69 SE3 30.44F Beaufort MCAS PTSUNNY 78 69 73 SE13 30.43F 6HR MIN TEMP: 62; 6HR MAX TEMP: 79; Beaufort Arpt CLOUDY 77 68 73 S9 30.43F HAZE Hilton Head Is PTSUNNY 75 68 78 SE14 30.45F Walterboro MOCLDY 79 64 61 S13 30.43F Allendale MOCLDY 77 68 73 VRB6 30.42F ...Southern Midlands and Pee Dee... CITY SKY/WX TMP DP RH WIND PRES REMARKS Georgetown CLOUDY 75 68 78 S10 30.46F Kingstree CLOUDY 79 63 57 S7 30.43F Orangeburg CLOUDY 76 68 76 W9 30.43F 6HR MIN TEMP: 62; 6HR MAX TEMP: 76; 6HR PCP: 0.03; Barnwell N/A 77 70 78 SW6 30.43F Aiken MOCLDY 77 64 65 S8 30.45F Manning MOCLDY 77 41 27 MISG 30.44F Columbia CLOUDY 79 66 64 S9 30.41F 6HR MIN TEMP: 70; 6HR MAX TEMP: 80; Sumter LGT RAIN 77 64 65 SW12 30.41F 6HR MIN TEMP: 63; 6HR MAX TEMP: 78; Florence PTSUNNY 78 64 61 MISG 30.44F 6HR MIN TEMP: 61; 6HR MAX TEMP: 79; Myrtle Beach FAIR 74 66 76 SE9 30.47F N Myrtle Beach CLOUDY 72 66 81 S8 30.46F 6HR MIN TEMP: 60; 6HR MAX TEMP: 74; $$ GAZ063-065-086>088-099>101-113>116-118-119-134>141-150-211900- ...Southeast Georgia... CITY SKY/WX TMP DP RH WIND PRES REMARKS Savannah Arpt PTSUNNY 81 67 62 SE15 30.42F 6HR MIN TEMP: 63; 6HR MAX TEMP: 83; 6HR PCP: 0.01; Hunter AAF FAIR 79 76 91 SE12 30.40F 6HR MIN TEMP: 67; 6HR MAX TEMP: 79; Fort Stewart PTSUNNY 80 66 61 S9 30.39F 6HR MIN TEMP: 64; 6HR MAX TEMP: 83; Statesboro PTSUNNY 81 62 52 S10 30.41F Sylvania CLOUDY 78 70 76 CALM 30.43F Claxton FAIR 84 68 58 SE8 30.40F ...CSRA, Central and far Southeast Georgia... CITY SKY/WX TMP DP RH WIND PRES REMARKS Thomson PTSUNNY 77 66 67 NW9 30.46F Augusta-Bush PTSUNNY 81 65 58 S10 30.40F 6HR MIN TEMP: 68; 6HR MAX TEMP: 83; Augusta-Daniel FAIR 81 66 60 S8 30.41F Swainsboro MOCLDY 79 66 65 SW3 30.41F Vidalia CLOUDY 81 68 65 CALM 30.40F Eastman MOCLDY 83 54 36 S6 30.42F Hazlehurst MOCLDY 82 60 46 SW7 30.38F Alma PTSUNNY 82 65 56 SE8 30.39F 6HR MIN TEMP: 69; 6HR MAX TEMP: 83; Waycross PTSUNNY 84 63 48 S12G17 30.39F Jesup MOCLDY 82 64 54 CALM 30.40F Baxley PTSUNNY 81 64 57 S8 30.39F Brunswick FAIR 79 64 61 SE13G20 30.43F Saint Simons FAIR 78 69 73 SE9 30.42F 6HR MIN TEMP: 66; 6HR MAX TEMP: 78; $$ SCZ027-028-034-036>038-045-046-048>050-GAZ119-141-211900- ...Lake and Supplemental Coastal Observations... STATION/POSITION TIME TEMP WIND PRES WAVE SWELL AIR SEA DIR/SP/G HT/PER HT/PER/DIR (UTC) (F) (DEG/KT/KT) (MB) (FT/S) (FT/S/D) Winyah Bay 1645 68 130/ 5 1032.0 Lake Murray 1720 67 200/ 4/ 5 1029.8 ACE Basin NERRS 1645 76 170/ 3 1032.0 Fort Pulaski 1742 74 60 160/ 6/ 10 1031.0F Sapelo Island 1700 79 160/ 9 1031.0 $$ ANZ835-935-AMZ111-154-330-350-352-354-370-450-454-472-211900- ...C-MAN and Buoy Observations... STATION/POSITION TIME TEMP WIND PRES WAVE SWELL AIR SEA DIR/SP/G HT/PER HT/PER/DIR (UTC) (F) (DEG/KT/KT) (MB) (FT/S) (FT/S/D) Buoy 41004 1750 72 160/ 4/ 6 1031.7F 4/ 7 3/140/ 7 Buoy 41008 1750 65 59 160/ 4/ 4 1030.2F 4/ 8 3/130/ 8 Folly Beach CMAN 1800 66 150/ 4/ 4 1031.7F Capers Nearshore 1708 62 61 150/ 4/ 8 1031.5F Fripp Nearshore 1708 64 59 100/ 4/ 6 1031.5R STATION/POSITION TIME TEMP WIND PRES WAVE SWELL AIR SEA DIR/SP/G HT/PER HT/PER/DIR (UTC) (F) (DEG/KT/KT) (MB) (FT/S) (FT/S/D) 5E St. Marys GA 1800 66 N/A 4/ 6 Frying Pan Buoy 1750 72 70 190/ 8/ 10 1031.6F 4/ 8 3/140/ 8 Buoy 41025 1750 73 72 200/ 12/ 16 1032.2F 4/13 3/ 90/13 Cape Lookout NC 1700 220/ 7/ 10 1032.8F Buoy 41002 1750 72 74 120/ 12/ 14 1032.8F 5/ 7 3/120/ 7 Buoy 41010 NOT AVBL St Augustine FL 1800 69 62 70/ 4/ 4 1030.1F $$

USA.gov is the U.S. government's official web portal to all federal, state and local government web resources and services.